Find Starlink 36633

NORAD ID: 67632 Int'l Des: 2026-020 Owner: SPXS Country: US Constellation: starlink operational
LEOCIRCULAR

Current View

Loading 3D Globe...

About Starlink 36633

Description loading...

Upcoming Passes

Passes for default location (London). Set your location on the main map for personalized predictions.

Altitude History

Loading altitude history...

Two-Line Element Set

1 67632U 26020R 26146.19051712 .00035638 00000-0 12976-2 0 9991
2 67632 43.0018 62.3266 0001930 262.0202 98.0431 15.27597925 17964
Epoch: May 26, 2026 • Age: 8 hours

Current Status

Altitude 483.0 km
Velocity 7.63 km/s
Sub-Earth Point 19.12°N, 9.9°E
Launch Date Jan 30, 2026
Age 0.3 years
Type internet

Technical Details

Classification Payload
Mass 575.00 kg
Dry Mass 530.00 kg
Total Mass 575.00 kg
Length 0.30 m
Diameter 4.10 m
Span 29.00 m
Shape Box + pan
Manufacturer SPXS
Bus Type Starlink V2MO
Phase Status In Orbit
Owner/State SPXS/US

Most Searched